[[{"header":{"parameterUnit":"m.s-1","parameterCategory":1,"la1":30.2991,"la2":30.254,"lo1":-89.0895,"lo2":-89.0444,"dy":0.0017,"dx":0.0017,"nx":28,"ny":28,"refTime":"2024-03-04T09:00:00:Z","depth":0,"parameterNumber":2,"parameterNumberName":"U-component_of_WINDS"},"data":[0,0,0,0,0,0,0,0,0,0,0,0,0,0,0,0,0,0,0,0,0,0,0,0,0,0,0,0,0,0,0,0,0,0,0,0,0,0,0,0,0,0,0,0,0,0,0,0,0,0,0,0,0,0,0,0,0,0,-0.198,-0.198,0,-0.2033,-0.2034,-0.2034,-0.2096,-0.2097,-0.2098,-0.2099,-0.215,-0.2151,-0.2151,0,0,0,0,0,0,0,0,0,0,0,0,0,-0.1927,-0.1928,-0.198,-0.198,-0.1981,-0.2033,-0.2034,-0.2034,-0.2096,-0.2097,-0.2099,-0.21,-0.215,-0.2151,-0.2151,0,0,0,0,0,0,0,0,0,0,0,0,0,-0.1962,-0.1928,-0.1979,-0.2018,-0.2022,-0.2033,-0.2034,-0.2034,-0.2096,-0.2097,-0.2099,-0.21,-0.215,-0.2151,-0.2151,-0.2127,0,0,-0.2153,-0.2154,0,0,0,0,0,0,0,0,-0.196,-0.1964,-0.2012,-0.2016,-0.202,-0.206,-0.2034,-0.2065,-0.2096,-0.2068,-0.2099,-0.2101,-0.2119,-0.2122,-0.2129,-0.2129,-0.2131,-0.2153,-0.2154,-0.2154,-0.2154,0,0,0,0,0,0,0,-0.1957,-0.1962,-0.2001,-0.2012,-0.2017,-0.2031,-0.2038,-0.204,-0.2084,-0.207,-0.2075,-0.2081,-0.2121,-0.2128,-0.213,-0.2132,-0.2153,-0.2154,-0.2154,-0.2155,-0.2113,-0.2112,0,0,0,0,0,0,-0.195,-0.1959,-0.1999,-0.2002,-0.1993,-0.2031,-0.2039,-0.2045,-0.2085,-0.2092,-0.2079,-0.2083,-0.2126,-0.2129,-0.2132,-0.2106,-0.2154,-0.2155,-0.2155,-0.2115,-0.2113,-0.2111,0,0,0,0,0,0,-0.1948,-0.1953,-0.1997,-0.1982,-0.1989,-0.2031,-0.2038,-0.2046,-0.2053,-0.2092,-0.2099,-0.2079,-0.2127,-0.2131,-0.2128,-0.2108,-0.2155,-0.2156,-0.2117,-0.2114,-0.2112,-0.2052,0,0,0,0,0,0,-0.1946,-0.1952,-0.1944,-0.1981,-0.1989,-0.1992,-0.2037,-0.2046,-0.2054,-0.206,-0.2093,-0.2099,-0.2129,-0.2126,-0.2128,-0.211,-0.2156,-0.2119,-0.2116,-0.2113,-0.2056,-0.2048,-0.2041,0,0,0,0,0,-0.1944,-0.1925,-0.1943,-0.1948,-0.1981,-0.1991,-0.1996,-0.2031,-0.2052,-0.2044,-0.2069,-0.2098,-0.211,-0.2125,-0.2128,-0.211,-0.212,-0.2117,-0.2113,-0.2059,-0.205,-0.2042,0,0,0,0,0,0,-0.1883,-0.193,-0.1952,-0.1944,-0.1963,-0.2002,-0.1993,-0.2019,-0.2032,-0.2037,-0.2079,-0.2085,-0.2076,-0.2093,-0.2109,-0.2087,-0.2119,-0.2116,-0.2077,-0.2068,-0.2061,-0.2057,-0.2157,0,0,0,0,0,-0.1869,-0.1875,-0.1915,-0.1904,-0.1913,-0.1951,-0.1956,-0.1982,-0.2003,-0.2011,-0.2036,-0.2054,-0.2062,-0.2066,-0.2075,-0.2059,-0.2066,-0.2047,-0.204,-0.2034,-0.203,-0.2022,-0.2013,-0.21,-0.21,-0.21,0,0,-0.1839,-0.1866,-0.1867,-0.1892,-0.191,-0.1914,-0.1957,-0.1959,-0.1962,-0.2011,-0.2009,-0.2027,-0.2051,-0.204,-0.2036,-0.2053,-0.2008,-0.2029,-0.2024,-0.2024,-0.2017,-0.2009,-0.2002,-0.2098,-0.2098,-0.2099,0,0,-0.1787,-0.1808,-0.1801,-0.1818,-0.1844,-0.187,-0.1867,-0.1902,-0.1916,-0.1915,-0.1952,-0.1954,-0.1967,-0.1982,-0.1991,-0.1942,-0.1969,-0.1944,-0.1905,-0.1896,-0.1889,-0.1883,-0.1865,-0.1858,-0.194,-0.194,-0.194,0,-0.1746,-0.1755,-0.1793,-0.1793,-0.1802,-0.1848,-0.1839,-0.1854,-0.1881,-0.1886,-0.1905,-0.1921,-0.194,-0.1932,-0.192,-0.1926,-0.1924,-0.194,-0.1887,-0.1882,-0.1877,-0.186,-0.1853,-0.1937,-0.1937,-0.1938,-0.1938,0,-0.1703,-0.1708,-0.1698,-0.1725,-0.1733,-0.1729,-0.1765,-0.1768,-0.1792,-0.1815,-0.1812,-0.1836,-0.185,-0.185,-0.1874,-0.1846,-0.1855,-0.188,-0.1913,-0.1865,-0.1849,-0.1843,-0.1932,-0.1933,-0.1934,-0.1935,0,0,-0.1615,-0.1662,-0.1658,-0.167,-0.1702,-0.1706,-0.1702,-0.1717,-0.1719,-0.1736,-0.1733,-0.1742,-0.1765,-0.1775,-0.18,-0.1792,-0.175,-0.1817,-0.1818,-0.1803,-0.172,-0.1701,-0.1693,-0.1768,-0.1767,-0.1766,-0.1718,0,-0.1569,-0.1568,-0.1601,-0.159,-0.1594,-0.1635,-0.1632,-0.165,-0.1671,-0.1676,-0.1698,-0.1704,-0.1733,-0.174,-0.1733,-0.1756,-0.1734,-0.176,-0.1765,-0.1765,-0.1758,-0.1685,-0.1666,-0.1619,-0.1712,-0.1711,-0.171,0,-0.1515,-0.153,-0.1519,-0.155,-0.1553,-0.1549,-0.1565,-0.157,-0.159,-0.1605,-0.1616,-0.1644,-0.1641,-0.1672,-0.1668,-0.1685,-0.1689,-0.17,-0.1699,-0.1701,-0.1735,-0.1685,-0.1605,-0.1598,-0.1702,-0.1702,-0.1703,0,-0.1452,-0.1468,-0.1464,-0.1472,-0.1509,-0.1505,-0.152,-0.1542,-0.1548,-0.1561,-0.1565,-0.1577,-0.1583,-0.1591,-0.1621,-0.1641,-0.1613,-0.1647,-0.1625,-0.1624,-0.1618,-0.1618,-0.1537,-0.162,-0.162,-0.162,-0.162,0,-0.1397,-0.1388,-0.1436,-0.1433,-0.1424,-0.1461,-0.1451,-0.1469,-0.1488,-0.1488,-0.1524,-0.1524,-0.1564,-0.1567,-0.159,-0.1582,-0.1585,-0.1596,-0.1603,-0.1593,-0.1592,-0.1596,-0.16,-0.1618,-0.1618,-0.1619,-0.1619,0,-0.1325,-0.1356,-0.1354,-0.1388,-0.1396,-0.1388,-0.1416,-0.1414,-0.1436,-0.1436,-0.1438,-0.1472,-0.1477,-0.1508,-0.152,-0.1536,-0.152,-0.1532,-0.1513,-0.1517,-0.1493,-0.1495,-0.1413,-0.1404,-0.1492,-0.1491,-0.149,0,-0.1288,-0.1283,-0.1316,-0.1319,-0.1332,-0.1336,-0.1343,-0.1378,-0.1383,-0.1405,-0.14,-0.1408,-0.1417,-0.1423,-0.1448,-0.1457,-0.147,-0.1441,-0.1472,-0.1462,-0.1469,-0.1469,-0.1469,-0.1434,-0.1433,-0.1432,-0.1432,0,-0.1219,-0.1234,-0.1243,-0.1256,-0.1263,-0.1275,-0.1289,-0.1289,-0.1328,-0.1331,-0.1337,-0.1344,-0.1356,-0.1363,-0.1376,-0.139,-0.1416,-0.1421,-0.1417,-0.1407,-0.1396,-0.1401,-0.1495,-0.1423,-0.1424,-0.1425,-0.1425,-0.1426,-0.1164,-0.116,-0.1182,-0.119,-0.1204,-0.1216,-0.1215,-0.1237,-0.1243,-0.1256,-0.1276,-0.1279,-0.1298,-0.1318,-0.1329,-0.1331,-0.1347,-0.134,-0.1339,-0.1336,-0.1331,-0.1395,-0.1334,-0.1334,-0.1334,-0.1334,-0.1335,0,-0.1096,-0.1112,-0.1119,-0.1137,-0.1142,-0.1167,-0.1183,-0.1186,-0.1188,-0.1204,-0.1211,-0.1217,-0.1224,-0.1249,-0.1258,-0.1255,-0.1267,-0.1256,-0.1256,-0.1259,-0.1317,-0.132,-0.1245,-0.1245,-0.1246,-0.1246,-0.1246,-0.1246,-0.1062,-0.1057,-0.1074,-0.1076,-0.1092,-0.1095,-0.1102,-0.1113,-0.1125,-0.113,-0.1136,-0.1153,-0.1171,-0.1182,-0.1188,-0.1196,-0.1197,-0.1182,-0.1192,-0.1246,-0.1255,-0.1263,-0.1266,-0.1182,-0.1181,-0.1134,-0.1134,-0.1134]},{"header":{"parameterUnit":"m.s-1","parameterCategory":1,"la1":30.2991,"la2":30.254,"lo1":-89.0895,"lo2":-89.0444,"dy":0.0017,"dx":0.0017,"nx":28,"ny":28,"refTime":"2024-03-04T09:00:00:Z","depth":0,"parameterNumber":3,"parameterNumberName":"V-component_of_WINDS"},"data":[0,0,0,0,0,0,0,0,0,0,0,0,0,0,0,0,0,0,0,0,0,0,0,0,0,0,0,0,0,0,0,0,0,0,0,0,0,0,0,0,0,0,0,0,0,0,0,0,0,0,0,0,0,0,0,0,0,0,0.7192,0.7195,0,0.7453,0.7456,0.7459,0.7597,0.7597,0.7597,0.7597,0.7864,0.7871,0.7878,0,0,0,0,0,0,0,0,0,0,0,0,0,0.6812,0.6818,0.7192,0.7195,0.7198,0.7452,0.7456,0.746,0.7597,0.7597,0.7597,0.7598,0.7862,0.787,0.7878,0,0,0,0,0,0,0,0,0,0,0,0,0,0.7015,0.682,0.7191,0.7297,0.731,0.7452,0.7456,0.7461,0.7597,0.7597,0.7597,0.7598,0.7859,0.7869,0.7879,0.7936,0,0,0.7911,0.7915,0,0,0,0,0,0,0,0,0.7003,0.7029,0.7279,0.729,0.7304,0.7493,0.742,0.762,0.7597,0.7488,0.7597,0.7598,0.774,0.776,0.7808,0.7948,0.796,0.7912,0.7918,0.7922,0.7925,0,0,0,0,0,0,0,0.6989,0.7018,0.7295,0.7282,0.7298,0.7332,0.7361,0.7458,0.7609,0.7497,0.7508,0.7537,0.7747,0.7798,0.7816,0.7964,0.7911,0.7921,0.7927,0.7931,0.8164,0.8164,0,0,0,0,0,0,0.6958,0.7006,0.7287,0.7303,0.7152,0.7338,0.7371,0.7432,0.7608,0.7635,0.7536,0.7542,0.778,0.7804,0.7826,0.7905,0.7922,0.7932,0.7938,0.8164,0.8164,0.8164,0,0,0,0,0,0,0.6949,0.6982,0.7276,0.7157,0.7198,0.7345,0.7412,0.7437,0.7488,0.7638,0.7665,0.7561,0.7782,0.7811,0.7908,0.7916,0.7937,0.7946,0.8164,0.8164,0.8164,0.8062,0,0,0,0,0,0,0.6938,0.6978,0.7001,0.7157,0.7203,0.7354,0.7412,0.7442,0.7505,0.7516,0.7668,0.7693,0.7784,0.7892,0.7918,0.7931,0.7954,0.8164,0.8164,0.8164,0.8066,0.8059,0.8053,0,0,0,0,0,0.6924,0.6961,0.7001,0.7035,0.7235,0.7354,0.7381,0.7485,0.7505,0.753,0.7626,0.7689,0.791,0.79,0.7931,0.7947,0.8164,0.8164,0.8164,0.8068,0.806,0.8053,0,0,0,0,0,0,0.6802,0.6984,0.703,0.712,0.722,0.7377,0.7412,0.7472,0.7569,0.7575,0.7699,0.7733,0.7818,0.7892,0.7878,0.8011,0.8044,0.805,0.796,0.7954,0.7947,0.7928,0.7963,0,0,0,0,0,0.6786,0.6867,0.7022,0.7085,0.7134,0.7263,0.7319,0.739,0.75,0.7543,0.7646,0.775,0.7843,0.7902,0.7996,0.8076,0.8112,0.8102,0.8096,0.809,0.8094,0.8143,0.8141,0.8164,0.8164,0.8164,0,0,0.6753,0.6862,0.6906,0.7064,0.7151,0.7232,0.7298,0.7382,0.7444,0.7556,0.7654,0.7733,0.7857,0.7945,0.799,0.801,0.8095,0.809,0.8084,0.8092,0.8143,0.8141,0.8139,0.8164,0.8164,0.8164,0,0,0.6736,0.6826,0.689,0.6975,0.7105,0.7191,0.7206,0.7354,0.7411,0.7511,0.7597,0.7672,0.783,0.7915,0.7979,0.7993,0.8054,0.8019,0.7987,0.8033,0.8032,0.8031,0.8037,0.8038,0.8023,0.8023,0.8023,0,0.6679,0.6806,0.6915,0.6994,0.7061,0.7166,0.7232,0.7309,0.7462,0.7506,0.7527,0.7727,0.7818,0.7929,0.7932,0.7979,0.8001,0.8004,0.8023,0.8023,0.8024,0.8032,0.8033,0.8018,0.8018,0.8019,0.8019,0,0.673,0.6816,0.6852,0.6999,0.707,0.7141,0.7261,0.732,0.7384,0.7467,0.7568,0.7681,0.78,0.7831,0.7894,0.7951,0.7959,0.7999,0.8035,0.8015,0.8024,0.8028,0.8011,0.8013,0.8014,0.8015,0,0,0.6645,0.6851,0.6862,0.693,0.7081,0.715,0.7226,0.7343,0.7391,0.7493,0.7561,0.7692,0.773,0.7802,0.7876,0.7916,0.7922,0.7952,0.7957,0.7944,0.7992,0.7962,0.7964,0.7962,0.7963,0.7964,0.7982,0,0.6651,0.6793,0.6893,0.6997,0.7079,0.7179,0.7246,0.7345,0.7425,0.7506,0.7594,0.7685,0.7728,0.7772,0.7816,0.7911,0.7933,0.7911,0.8028,0.803,0.7995,0.7969,0.7938,0.795,0.7986,0.7987,0.7988,0,0.6677,0.6776,0.6888,0.7031,0.7069,0.7127,0.7242,0.7318,0.7432,0.7488,0.7568,0.7643,0.7728,0.7754,0.7873,0.7856,0.7909,0.7963,0.7966,0.7983,0.8009,0.7986,0.7956,0.7958,0.7994,0.7993,0.7993,0,0.6606,0.6767,0.6856,0.691,0.7078,0.7117,0.7189,0.7304,0.7368,0.7468,0.7511,0.7619,0.7678,0.776,0.7863,0.7872,0.7973,0.8007,0.8022,0.8019,0.804,0.8038,0.802,0.807,0.807,0.807,0.807,0,0.6603,0.6667,0.6826,0.688,0.6956,0.707,0.7142,0.7222,0.7323,0.7395,0.7487,0.7552,0.7684,0.7765,0.7845,0.7933,0.7958,0.8006,0.8027,0.7999,0.7993,0.8037,0.804,0.8071,0.8071,0.8071,0.8071,0,0.6537,0.6646,0.6749,0.6899,0.6939,0.6988,0.7117,0.7173,0.7257,0.7347,0.7375,0.7507,0.7607,0.7717,0.7854,0.7909,0.7992,0.8021,0.7953,0.7966,0.7975,0.7973,0.7987,0.7995,0.8037,0.8036,0.8036,0,0.6529,0.6582,0.6737,0.6792,0.6862,0.6949,0.7014,0.7128,0.7192,0.7327,0.7367,0.7474,0.7567,0.7722,0.7831,0.7936,0.797,0.7967,0.7986,0.7957,0.7972,0.7968,0.7975,0.7962,0.7961,0.796,0.7959,0,0.6504,0.6555,0.6646,0.6756,0.6832,0.6923,0.7019,0.7058,0.7191,0.7259,0.7363,0.7434,0.7574,0.768,0.7798,0.7873,0.7938,0.7952,0.7961,0.7934,0.7894,0.7918,0.794,0.7952,0.7952,0.7953,0.7953,0.7954,0.6469,0.652,0.6638,0.6737,0.682,0.6907,0.6968,0.706,0.7149,0.7272,0.7333,0.7437,0.755,0.7717,0.7789,0.7871,0.7892,0.7905,0.7909,0.7911,0.7904,0.7878,0.7893,0.7894,0.7894,0.7894,0.7894,0,0.645,0.653,0.662,0.6751,0.6828,0.6882,0.699,0.7052,0.7142,0.7242,0.7331,0.7451,0.7553,0.7669,0.7779,0.7823,0.7856,0.7849,0.7848,0.7864,0.7879,0.786,0.782,0.782,0.782,0.782,0.782,0.782,0.6449,0.654,0.6604,0.6737,0.6818,0.692,0.6978,0.7059,0.714,0.7269,0.7355,0.743,0.7537,0.7655,0.7752,0.7784,0.7821,0.7804,0.7845,0.7857,0.7863,0.7869,0.7852,0.7811,0.7811,0.7824,0.7824,0.7824]}]]